[[{"header":{"parameterUnit":"m.s-1","parameterCategory":2,"la1":30.2992,"la2":30.254,"lo1":-89.0895,"lo2":-89.0443,"dy":0.0025,"dx":0.0025,"nx":19,"ny":19,"refTime":"2026-03-11T09:00:00:Z","depth":"0","parameterNumber":2,"parameterNumberName":"U-component_of_CURRENTS"},"data":[0,0,0,-0.2023,-0.2024,-0.2051,-0.2051,-0.2059,-0.2059,0,0,0,0,0,0,0,0,0,0,0,-0.2005,-0.2006,-0.2023,-0.2024,-0.2051,-0.2051,-0.2059,-0.2059,0,0,0,0,0,0,0,0,0,0,0,-0.2005,-0.2006,-0.2006,-0.2024,-0.2051,-0.2051,-0.2059,-0.2044,0,0,0,0,0,0,0,0,0,0,-0.202,-0.2003,-0.2005,-0.2006,-0.2024,-0.2051,-0.2051,-0.2043,-0.2045,-0.2041,0,-0.2045,0,-0.2058,-0.206,-0.206,0,0,0,-0.2018,-0.2002,-0.2019,-0.2006,-0.2025,-0.2051,-0.2037,-0.2044,-0.2046,-0.2043,-0.2045,-0.2046,-0.2058,-0.206,-0.206,-0.2078,-0.2078,0,0,-0.2016,-0.2001,-0.2018,-0.202,-0.2031,-0.2036,-0.2038,-0.2045,-0.204,-0.2045,-0.2046,-0.2058,-0.206,-0.206,-0.2077,-0.2078,0,0,0,-0.2016,-0.2,-0.2017,-0.2019,-0.2029,-0.2037,-0.2039,-0.204,-0.2048,-0.2046,-0.2059,-0.206,-0.206,-0.2077,-0.2078,-0.2108,0,0,0,-0.2015,-0.2001,-0.2016,-0.2006,-0.2029,-0.2038,-0.2033,-0.2047,-0.2049,-0.2058,-0.206,-0.206,-0.2077,-0.2077,-0.2107,-0.2107,0,0,0,-0.2004,-0.2,-0.2005,-0.2005,-0.2022,-0.2038,-0.2046,-0.2048,-0.2057,-0.206,-0.206,-0.2077,-0.2077,-0.2106,-0.2105,-0.2089,0,0,0,-0.1986,-0.1997,-0.2004,-0.2023,-0.2022,-0.2059,-0.2046,-0.2063,-0.2068,-0.206,-0.2077,-0.2078,-0.2106,-0.2104,-0.2088,-0.1925,-0.1914,0,0,-0.1993,-0.1997,-0.2012,-0.202,-0.2057,-0.2055,-0.2088,-0.2084,-0.2071,-0.2071,-0.2072,-0.2107,-0.2105,-0.2089,-0.1945,-0.1933,0,0,0,-0.2011,-0.2017,-0.2031,-0.2052,-0.208,-0.2099,-0.2105,-0.2102,-0.2101,-0.2077,-0.2105,-0.2103,-0.2091,-0.1992,-0.1983,-0.1886,-0.2079,-0.2079,-0.2079,-0.1983,-0.2015,-0.2037,-0.2075,-0.21,-0.2129,-0.2138,-0.2133,-0.2126,-0.2126,-0.2127,-0.2133,-0.2029,-0.202,-0.1923,-0.2133,-0.2133,-0.2133,-0.2134,-0.1982,-0.1986,-0.2035,-0.2065,-0.2101,-0.2127,-0.2161,-0.2161,-0.2158,-0.2152,-0.214,-0.2029,-0.2011,-0.1911,-0.2135,-0.2135,-0.2135,-0.2135,-0.2135,-0.1941,-0.1947,-0.1978,-0.2021,-0.2064,-0.2114,-0.2135,-0.2164,-0.2165,-0.2169,-0.2031,-0.2028,-0.1938,-0.2156,-0.2156,-0.2156,-0.2156,-0.2156,-0.2156,-0.1871,-0.1908,-0.1915,-0.1975,-0.1997,-0.2046,-0.2112,-0.2115,-0.2069,-0.2035,-0.2033,-0.1911,-0.2139,-0.2135,-0.2155,-0.2155,-0.2155,-0.2155,-0.2155,-0.1791,-0.1814,-0.1822,-0.1842,-0.1903,-0.1885,-0.1991,-0.193,-0.1943,-0.1874,-0.1738,-0.1952,-0.1917,-0.1922,-0.1912,-0.1873,-0.1873,-0.1873,-0.1873,-0.1714,-0.1737,-0.1715,-0.1726,-0.1759,-0.1799,-0.169,-0.1657,-0.1585,-0.1508,-0.1572,-0.1525,-0.1541,-0.1483,-0.1498,-0.148,-0.1332,-0.1331,-0.1331,-0.164,-0.1657,-0.16,-0.1636,-0.1671,-0.1661,-0.148,-0.132,-0.1257,-0.1307,-0.1473,-0.1496,-0.1432,-0.1465,-0.138,-0.1409,-0.1381,0,0]},{"header":{"parameterUnit":"m.s-1","parameterCategory":2,"la1":30.2992,"la2":30.254,"lo1":-89.0895,"lo2":-89.0443,"dy":0.0025,"dx":0.0025,"nx":19,"ny":19,"refTime":"2026-03-11T09:00:00:Z","depth":"0","parameterNumber":3,"parameterNumberName":"V-component_of_CURRENTS"},"data":[0,0,0,-0.0249,-0.0248,-0.0195,-0.0194,-0.0085,-0.0084,0,0,0,0,0,0,0,0,0,0,0,-0.0266,-0.0266,-0.0249,-0.0248,-0.0195,-0.0194,-0.0085,-0.0084,0,0,0,0,0,0,0,0,0,0,0,-0.0266,-0.0266,-0.0266,-0.0248,-0.0195,-0.0194,-0.0085,-0.0133,0,0,0,0,0,0,0,0,0,0,-0.0189,-0.0218,-0.0266,-0.0266,-0.0248,-0.0195,-0.0194,-0.0135,-0.013,-0.0102,0,-0.0102,0,-0.0095,-0.0077,-0.0076,0,0,0,-0.0235,-0.0223,-0.0208,-0.0266,-0.0248,-0.0195,-0.0215,-0.0132,-0.0126,-0.0094,-0.01,-0.0096,-0.0094,-0.0076,-0.0076,-0.0006,-0.0006,0,0,-0.0238,-0.0252,-0.0213,-0.0205,-0.0243,-0.0217,-0.0214,-0.0129,-0.0125,-0.01,-0.0094,-0.0092,-0.0075,-0.0075,-0.0006,-0.0006,0,0,0,-0.0255,-0.0254,-0.0242,-0.0209,-0.0205,-0.0216,-0.0212,-0.0129,-0.0125,-0.0093,-0.0091,-0.0075,-0.0073,-0.0006,-0.0006,-0.0071,0,0,0,-0.0257,-0.0265,-0.0244,-0.0251,-0.0207,-0.0173,-0.0214,-0.0131,-0.0122,-0.0091,-0.0075,-0.0072,-0.0006,-0.0006,-0.007,-0.0097,0,0,0,-0.0267,-0.0266,-0.0263,-0.0252,-0.0235,-0.0174,-0.0165,-0.0129,-0.012,-0.0076,-0.0072,-0.0006,-0.0006,-0.0068,-0.0094,-0.0041,0,0,0,-0.0278,-0.03,-0.0264,-0.0285,-0.0236,-0.0222,-0.0166,-0.0144,-0.0113,-0.0074,-0.0006,-0.0006,-0.0067,-0.0092,-0.004,0.0033,0.0036,0,0,-0.0317,-0.0304,-0.0318,-0.0286,-0.0298,-0.0228,-0.0218,-0.0153,-0.01,-0.0029,-0.0027,-0.007,-0.0093,-0.0041,0.0029,0.0032,0,0,0,-0.0339,-0.0352,-0.0348,-0.0344,-0.0313,-0.0275,-0.0208,-0.0164,-0.0101,-0.0084,-0.0053,-0.0065,-0.003,0.0016,0.0019,0.0148,-0.0007,-0.0007,-0.0007,-0.0407,-0.0394,-0.0418,-0.0396,-0.0376,-0.0301,-0.0256,-0.0178,-0.0132,-0.0111,-0.0106,-0.0096,-0.005,-0.0046,0.0084,-0.0092,-0.0092,-0.0092,-0.0092,-0.0483,-0.0502,-0.0471,-0.0492,-0.0434,-0.041,-0.0297,-0.0246,-0.0152,-0.0138,-0.0099,-0.0041,-0.0047,0.0092,-0.0096,-0.0095,-0.0095,-0.0095,-0.0094,-0.0536,-0.0545,-0.0549,-0.0564,-0.0542,-0.0473,-0.041,-0.0324,-0.0209,-0.0182,-0.0064,-0.0062,0.0055,-0.0146,-0.0146,-0.0146,-0.0146,-0.0146,-0.0146,-0.0592,-0.0595,-0.0634,-0.0637,-0.064,-0.0603,-0.0474,-0.038,-0.0209,-0.0116,-0.0114,0.0082,-0.011,-0.0114,-0.0144,-0.0145,-0.0145,-0.0145,-0.0145,-0.0664,-0.0659,-0.0724,-0.0742,-0.0741,-0.0684,-0.0564,-0.0312,-0.019,-0.0074,0.0156,-0.0046,-0.0,-0.0001,0.0,0.0001,0.0001,0.0001,0.0002,-0.0705,-0.0711,-0.0789,-0.0826,-0.0825,-0.0723,-0.0518,-0.0253,0.0092,0.026,0.0287,0.0313,0.0301,0.0365,0.0357,0.0366,0.046,0.0461,0.0462,-0.0747,-0.077,-0.0825,-0.086,-0.0861,-0.0732,-0.0497,-0.0119,0.0345,0.0491,0.0452,0.0433,0.0477,0.0448,0.0553,0.0531,0.0547,0,0]}],[{"header":{"parameterUnit":"m.s-1","parameterCategory":2,"la1":30.2992,"la2":30.254,"lo1":-89.0895,"lo2":-89.0443,"dy":0.0025,"dx":0.0025,"nx":19,"ny":19,"refTime":"2026-03-11T09:00:00:Z","depth":"2","parameterNumber":2,"parameterNumberName":"U-component_of_CURRENTS"},"data":[0,0,0,-0.1739,-0.174,-0.1781,-0.1781,-0.1798,-0.1798,0,0,0,0,0,0,0,0,0,0,0,-0.1719,-0.1719,-0.1739,-0.174,-0.1781,-0.1781,-0.1798,-0.1798,0,0,0,0,0,0,0,0,0,0,0,-0.1719,-0.1719,-0.172,-0.1741,-0.1781,-0.1781,-0.1798,-0.1775,0,0,0,0,0,0,0,0,0,0,-0.174,-0.1723,-0.1719,-0.172,-0.1741,-0.1781,-0.1781,-0.1774,-0.1777,-0.1772,0,-0.1779,0,-0.1793,-0.1799,-0.1799,0,0,0,-0.1736,-0.1721,-0.1739,-0.172,-0.1741,-0.1781,-0.1761,-0.1776,-0.1778,-0.1774,-0.1779,-0.178,-0.1793,-0.1799,-0.1799,-0.1823,-0.1824,0,0,-0.1733,-0.172,-0.1737,-0.174,-0.1752,-0.176,-0.1763,-0.1778,-0.1776,-0.1779,-0.1781,-0.1794,-0.1799,-0.1799,-0.1823,-0.1823,0,0,0,-0.173,-0.1718,-0.1736,-0.1739,-0.1752,-0.1761,-0.1764,-0.1775,-0.1783,-0.1781,-0.1794,-0.1799,-0.18,-0.1823,-0.1823,-0.1853,0,0,0,-0.1729,-0.1717,-0.1734,-0.1726,-0.1752,-0.1768,-0.1761,-0.1781,-0.1784,-0.1794,-0.1799,-0.18,-0.1823,-0.1823,-0.1852,-0.185,0,0,0,-0.1717,-0.1716,-0.1722,-0.1725,-0.1747,-0.1768,-0.1777,-0.1782,-0.1792,-0.1799,-0.18,-0.1823,-0.1823,-0.1851,-0.1849,-0.183,0,0,0,-0.17,-0.1713,-0.1721,-0.1743,-0.1746,-0.1787,-0.1777,-0.18,-0.1809,-0.18,-0.1823,-0.1823,-0.1851,-0.1848,-0.183,-0.1671,-0.166,0,0,-0.1709,-0.1713,-0.1729,-0.1739,-0.1778,-0.1781,-0.1818,-0.1822,-0.1812,-0.1814,-0.1815,-0.1853,-0.1849,-0.183,-0.1695,-0.1682,0,0,0,-0.1728,-0.1735,-0.175,-0.1774,-0.1804,-0.1827,-0.1839,-0.184,-0.1846,-0.182,-0.1852,-0.1849,-0.1836,-0.1739,-0.173,-0.1825,-0.1825,-0.1825,-0.1825,-0.1706,-0.1737,-0.1761,-0.1798,-0.1825,-0.1859,-0.1872,-0.1872,-0.187,-0.1875,-0.1874,-0.188,-0.1778,-0.1769,-0.1882,-0.1882,-0.1882,-0.1883,-0.1883,-0.1708,-0.1713,-0.176,-0.1792,-0.1829,-0.1859,-0.1896,-0.19,-0.1901,-0.19,-0.1886,-0.1777,-0.176,-0.1885,-0.1885,-0.1884,-0.1884,-0.1884,-0.1884,-0.1673,-0.1678,-0.171,-0.1754,-0.1798,-0.185,-0.1869,-0.1903,-0.1909,-0.1912,-0.1777,-0.1775,-0.1879,-0.19,-0.19,-0.19,-0.19,-0.19,-0.19,-0.1608,-0.1644,-0.1653,-0.1713,-0.1734,-0.1781,-0.1847,-0.1849,-0.1809,-0.178,-0.1778,-0.1885,-0.1884,-0.1879,-0.1898,-0.1899,-0.1899,-0.1899,-0.1899,-0.1535,-0.1558,-0.1565,-0.1584,-0.1638,-0.1611,-0.1716,-0.166,-0.1674,-0.161,-0.1693,-0.1698,-0.1662,-0.1667,-0.1656,-0.1617,-0.1617,-0.1617,-0.1617,-0.1464,-0.1486,-0.1465,-0.1471,-0.1491,-0.1521,-0.1401,-0.1364,-0.1397,-0.1384,-0.1394,-0.1361,-0.1376,-0.1324,-0.1337,-0.1319,-0.1192,-0.1192,-0.1191,-0.1396,-0.141,-0.1357,-0.1385,-0.1404,-0.1375,-0.1184,-0.1011,-0.1018,-0.1179,-0.137,-0.1579,-0.1556,-0.157,-0.1513,-0.1525,-0.1505,0,0]},{"header":{"parameterUnit":"m.s-1","parameterCategory":2,"la1":30.2992,"la2":30.254,"lo1":-89.0895,"lo2":-89.0443,"dy":0.0025,"dx":0.0025,"nx":19,"ny":19,"refTime":"2026-03-11T09:00:00:Z","depth":"2","parameterNumber":3,"parameterNumberName":"V-component_of_CURRENTS"},"data":[0,0,0,-0.0359,-0.0358,-0.0307,-0.0307,-0.0206,-0.0205,0,0,0,0,0,0,0,0,0,0,0,-0.0375,-0.0375,-0.0359,-0.0358,-0.0307,-0.0307,-0.0206,-0.0205,0,0,0,0,0,0,0,0,0,0,0,-0.0375,-0.0375,-0.0375,-0.0358,-0.0307,-0.0307,-0.0206,-0.0251,0,0,0,0,0,0,0,0,0,0,-0.0304,-0.033,-0.0375,-0.0375,-0.0358,-0.0307,-0.0307,-0.0253,-0.0248,-0.0223,0,-0.0222,0,-0.0216,-0.0199,-0.0198,0,0,0,-0.0346,-0.0335,-0.0321,-0.0375,-0.0358,-0.0307,-0.0327,-0.025,-0.0244,-0.0216,-0.0221,-0.0217,-0.0215,-0.0198,-0.0197,-0.0134,-0.0134,0,0,-0.0349,-0.0362,-0.0326,-0.0318,-0.0353,-0.0328,-0.0325,-0.0247,-0.0244,-0.0221,-0.0215,-0.0213,-0.0197,-0.0197,-0.0134,-0.0134,0,0,0,-0.0365,-0.0364,-0.0352,-0.0322,-0.0318,-0.0327,-0.0323,-0.0247,-0.0244,-0.0214,-0.0212,-0.0197,-0.0196,-0.0134,-0.0134,-0.0197,0,0,0,-0.0366,-0.0374,-0.0354,-0.036,-0.032,-0.0288,-0.0325,-0.0249,-0.024,-0.0212,-0.0197,-0.0195,-0.0134,-0.0134,-0.0195,-0.0225,0,0,0,-0.0376,-0.0375,-0.0372,-0.0361,-0.0345,-0.0289,-0.028,-0.0247,-0.0239,-0.0198,-0.0194,-0.0134,-0.0134,-0.0194,-0.0222,-0.0186,0,0,0,-0.0386,-0.0403,-0.0373,-0.039,-0.0346,-0.0332,-0.0281,-0.0259,-0.0231,-0.0196,-0.0134,-0.0134,-0.0193,-0.022,-0.0186,-0.0142,-0.0143,0,0,-0.0418,-0.0407,-0.0419,-0.0391,-0.04,-0.0337,-0.0328,-0.0268,-0.022,-0.0155,-0.0154,-0.0196,-0.0222,-0.0186,-0.0146,-0.0147,0,0,0,-0.0436,-0.0447,-0.0444,-0.044,-0.0412,-0.038,-0.0318,-0.0279,-0.0222,-0.0204,-0.0179,-0.0193,-0.0169,-0.014,-0.0141,-0.0135,-0.0135,-0.0135,-0.0135,-0.0494,-0.0483,-0.0504,-0.0487,-0.0469,-0.0403,-0.0367,-0.0298,-0.0251,-0.0234,-0.0232,-0.0234,-0.0206,-0.0205,-0.0216,-0.0217,-0.0217,-0.0217,-0.0217,-0.056,-0.0578,-0.0554,-0.0572,-0.0524,-0.0503,-0.0408,-0.0363,-0.0286,-0.0265,-0.0237,-0.0194,-0.0209,-0.0222,-0.0221,-0.022,-0.022,-0.0219,-0.0219,-0.0608,-0.0616,-0.0621,-0.0638,-0.0623,-0.0564,-0.0522,-0.0444,-0.0344,-0.0326,-0.0237,-0.0235,-0.0258,-0.0296,-0.0296,-0.0296,-0.0296,-0.0296,-0.0296,-0.0657,-0.0661,-0.0699,-0.0706,-0.0713,-0.0689,-0.0587,-0.0516,-0.0376,-0.0293,-0.0292,-0.0259,-0.0257,-0.026,-0.0296,-0.0296,-0.0296,-0.0296,-0.0296,-0.0722,-0.0719,-0.0782,-0.0803,-0.0816,-0.0785,-0.0689,-0.0496,-0.0398,-0.0306,-0.0247,-0.0248,-0.0211,-0.0209,-0.021,-0.023,-0.023,-0.023,-0.023,-0.076,-0.0766,-0.0846,-0.089,-0.0906,-0.0833,-0.069,-0.0475,-0.0284,-0.0196,-0.0198,-0.019,-0.0193,-0.0153,-0.0153,-0.0152,-0.0157,-0.0157,-0.0157,-0.0801,-0.0823,-0.0882,-0.0923,-0.0946,-0.0861,-0.0688,-0.0372,-0.0125,-0.0157,-0.0208,-0.0221,-0.0213,-0.0216,-0.0157,-0.0156,-0.0155,0,0]}],[{"header":{"parameterUnit":"m.s-1","parameterCategory":2,"la1":30.2992,"la2":30.254,"lo1":-89.0895,"lo2":-89.0443,"dy":0.0025,"dx":0.0025,"nx":19,"ny":19,"refTime":"2026-03-11T09:00:00:Z","depth":"4","parameterNumber":2,"parameterNumberName":"U-component_of_CURRENTS"},"data":[0,0,0,-0.1251,-0.1253,-0.1362,-0.1363,-0.1432,-0.1432,0,0,0,0,0,0,0,0,0,0,0,-0.1216,-0.1216,-0.125,-0.1253,-0.1362,-0.1363,-0.1432,-0.1432,0,0,0,0,0,0,0,0,0,0,0,-0.1215,-0.1216,-0.1217,-0.1254,-0.1362,-0.1363,-0.1431,-0.1367,0,0,0,0,0,0,0,0,0,0,-0.1269,-0.125,-0.1216,-0.1217,-0.1254,-0.1362,-0.1363,-0.1364,-0.1371,-0.1362,0,-0.1386,0,-0.1408,-0.1435,-0.1435,0,0,0,-0.1254,-0.1245,-0.1271,-0.1217,-0.1255,-0.1362,-0.1313,-0.1369,-0.1376,-0.1369,-0.1387,-0.139,-0.1409,-0.1435,-0.1435,-0.1492,-0.1492,0,0,-0.1248,-0.1236,-0.1267,-0.1276,-0.1292,-0.131,-0.1317,-0.1374,-0.1384,-0.1387,-0.1392,-0.141,-0.1436,-0.1436,-0.1492,-0.1492,0,0,0,-0.123,-0.1232,-0.1259,-0.1272,-0.1297,-0.1313,-0.1321,-0.1382,-0.1391,-0.1393,-0.1411,-0.1436,-0.1436,-0.1491,-0.1492,-0.1521,0,0,0,-0.1226,-0.1222,-0.1256,-0.125,-0.1296,-0.1351,-0.1328,-0.1387,-0.1394,-0.1411,-0.1436,-0.1437,-0.1491,-0.1492,-0.152,-0.1514,0,0,0,-0.1209,-0.122,-0.1234,-0.1249,-0.1296,-0.1351,-0.1364,-0.1389,-0.1404,-0.1435,-0.1437,-0.1491,-0.1492,-0.1518,-0.1512,-0.1491,0,0,0,-0.119,-0.1215,-0.1235,-0.1273,-0.1295,-0.136,-0.1364,-0.1419,-0.1449,-0.1436,-0.1491,-0.1492,-0.1518,-0.1511,-0.1491,-0.1292,0,0,0,-0.1206,-0.1217,-0.1239,-0.1259,-0.1317,-0.1345,-0.1406,-0.1447,-0.1452,-0.1466,-0.1469,-0.152,-0.1512,-0.1491,-0.1335,0,0,0,0,-0.1234,-0.125,-0.1272,-0.1314,-0.1361,-0.1408,-0.1454,-0.1469,-0.1506,-0.1474,-0.1526,-0.152,-0.1505,-0.1389,-0.1495,-0.1495,-0.1495,-0.1495,-0.1495,-0.1225,-0.1258,-0.1298,-0.1347,-0.1391,-0.1457,-0.149,-0.1516,-0.1528,-0.1549,-0.1549,-0.1558,-0.1439,-0.1564,-0.1565,-0.1565,-0.1565,-0.1565,-0.1565,-0.1232,-0.1244,-0.1306,-0.1357,-0.1414,-0.147,-0.1527,-0.1548,-0.1569,-0.1579,-0.1564,-0.1436,-0.1568,-0.1567,-0.1567,-0.1567,-0.1566,-0.1566,-0.1566,-0.1198,-0.1207,-0.126,-0.1331,-0.1402,-0.1475,-0.1498,-0.1555,-0.1578,-0.1583,-0.1434,-0.1561,-0.155,-0.1575,-0.1575,-0.1575,-0.1575,-0.1575,-0.1575,-0.1127,-0.118,-0.1213,-0.1301,-0.1342,-0.1404,-0.1484,-0.1482,-0.1524,-0.1428,-0.1583,-0.1561,-0.156,-0.155,-0.1574,-0.1574,-0.1574,-0.1574,-0.1574,-0.1056,-0.1094,-0.1125,-0.1167,-0.1245,-0.127,-0.1382,-0.1334,-0.1307,-0.1246,-0.1332,-0.1344,-0.1303,-0.1308,-0.1287,-0.1234,-0.1232,-0.1229,0,-0.099,-0.1017,-0.1035,-0.1058,-0.1071,-0.1171,-0.1092,-0.1116,-0.1141,-0.1102,-0.1306,-0.1405,-0.1412,-0.137,-0.137,-0.1346,0,0,0,-0.0931,-0.095,-0.0926,-0.0972,-0.0975,-0.0978,-0.1058,-0.1003,-0.116,-0.1068,-0.1166,-0.1182,-0.143,-0.1569,-0.1535,-0.1534,-0.1515,0,0]},{"header":{"parameterUnit":"m.s-1","parameterCategory":2,"la1":30.2992,"la2":30.254,"lo1":-89.0895,"lo2":-89.0443,"dy":0.0025,"dx":0.0025,"nx":19,"ny":19,"refTime":"2026-03-11T09:00:00:Z","depth":"4","parameterNumber":3,"parameterNumberName":"V-component_of_CURRENTS"},"data":[0,0,0,-0.0315,-0.0315,-0.0291,-0.029,-0.0216,-0.0215,0,0,0,0,0,0,0,0,0,0,0,-0.0323,-0.0323,-0.0315,-0.0315,-0.0291,-0.029,-0.0216,-0.0215,0,0,0,0,0,0,0,0,0,0,0,-0.0323,-0.0323,-0.0324,-0.0315,-0.0291,-0.029,-0.0216,-0.0243,0,0,0,0,0,0,0,0,0,0,-0.0271,-0.0291,-0.0323,-0.0324,-0.0315,-0.0291,-0.029,-0.0244,-0.0241,-0.0218,0,-0.0222,0,-0.022,-0.021,-0.021,0,0,0,-0.0305,-0.0294,-0.0287,-0.0324,-0.0315,-0.0291,-0.0299,-0.0243,-0.0239,-0.0213,-0.0221,-0.0218,-0.0219,-0.021,-0.0209,-0.016,-0.016,0,0,-0.0306,-0.0316,-0.029,-0.0285,-0.0318,-0.03,-0.0298,-0.0241,-0.024,-0.0221,-0.0217,-0.0218,-0.0209,-0.0208,-0.016,-0.016,0,0,0,-0.0317,-0.0317,-0.0311,-0.0287,-0.0288,-0.0299,-0.0297,-0.0243,-0.0241,-0.0216,-0.0217,-0.0209,-0.0208,-0.016,-0.016,-0.0218,0,0,0,-0.0317,-0.0324,-0.0312,-0.0317,-0.029,-0.0272,-0.0301,-0.0245,-0.0239,-0.0217,-0.0209,-0.0207,-0.016,-0.016,-0.0216,-0.0246,0,0,0,-0.0323,-0.0325,-0.0325,-0.0318,-0.0312,-0.0274,-0.0268,-0.0244,-0.0239,-0.021,-0.0207,-0.016,-0.016,-0.0215,-0.0243,-0.0227,0,0,0,-0.0329,-0.0343,-0.0325,-0.0341,-0.0313,-0.0307,-0.0269,-0.0257,-0.0236,-0.0208,-0.016,-0.016,-0.0214,-0.0241,-0.0225,-0.0221,0,0,0,-0.0352,-0.0346,-0.0356,-0.0339,-0.0352,-0.0309,-0.0309,-0.0266,-0.0226,-0.0173,-0.0172,-0.0217,-0.0243,-0.0226,-0.0223,0,0,0,0,-0.0366,-0.0376,-0.0376,-0.038,-0.0363,-0.0349,-0.0305,-0.0276,-0.0234,-0.0215,-0.0201,-0.0215,-0.0203,-0.0196,-0.016,-0.016,-0.016,-0.016,-0.016,-0.0407,-0.0403,-0.0424,-0.0417,-0.041,-0.0371,-0.0349,-0.0299,-0.0259,-0.0247,-0.0251,-0.0265,-0.026,-0.0235,-0.0235,-0.0235,-0.0235,-0.0236,-0.0236,-0.0454,-0.0469,-0.0463,-0.0485,-0.0462,-0.0454,-0.039,-0.0357,-0.0307,-0.0282,-0.0266,-0.0245,-0.0241,-0.024,-0.0239,-0.0239,-0.0238,-0.0238,-0.0238,-0.0484,-0.0492,-0.0509,-0.0538,-0.0545,-0.0511,-0.0493,-0.0437,-0.0361,-0.0354,-0.0307,-0.0289,-0.0295,-0.0336,-0.0336,-0.0336,-0.0336,-0.0336,-0.0336,-0.0508,-0.0524,-0.0567,-0.0592,-0.0614,-0.0612,-0.0555,-0.0509,-0.043,-0.0368,-0.0363,-0.0298,-0.0294,-0.0298,-0.0337,-0.0337,-0.0337,-0.0337,-0.0336,-0.0543,-0.0555,-0.0618,-0.0653,-0.0696,-0.0684,-0.0641,-0.0521,-0.0468,-0.0395,-0.0354,-0.0353,-0.0323,-0.0319,-0.0323,-0.037,-0.037,-0.037,0,-0.0564,-0.0575,-0.066,-0.0717,-0.0745,-0.0721,-0.0646,-0.0572,-0.0458,-0.0452,-0.0469,-0.0429,-0.0426,-0.0398,-0.0394,-0.0403,0,0,0,-0.0587,-0.0612,-0.0671,-0.073,-0.0763,-0.0671,-0.062,-0.0571,-0.0479,-0.041,-0.0372,-0.0372,-0.039,-0.034,-0.0291,-0.0287,-0.029,0,0]}]]